STARLINK-38259, 100252

Orbit data source: Space-Track

STARLINK-38259, 100252 is a payload satellite owned by SpaceX/Seattle (US) in SSO that was launched on Sat, 08 Aug 2026 UTC launched from the Air Force Western Test Range (AFWTR). Payload-class satellites include a variety of spacecraft equipped with specific instruments for various scientific and technological missions. These include communications satellites like Starlink; space stations such as the ISS; scientific satellites like the Hubble; Earth observation satellites from companies like Planet Labs, Umbra, and HawkEye 360; GPS; miniature CubeSats for education and research; and military/defense satellites.

Loading next visibility...
Identifier
100252, 2026-181G
Orbit
SSO
Country
Flag of USUS
Related business
Manufacturer
SpaceX/Seattle
Mission
Operational spacecraft
Bus & Motor
STARLINK V2MO, Unknown motor
Mass
575 kg wet, ~530 kg dry
Launch date (UTC)
2026-08-08 (1 month ago)
Launch vehicle
Unknown
Launch site
Air Force Western Test Range (AFWTR)
Object type
Payload
Rocket body
Debris
Shape & HBR
BOX + PAN, 17.7 m
Radar Cross Section
RCS unknown

Expand to show TLE details & history
Last TLE update: 5 hours ago

TLE from 5 hours ago
0 STARLINK-38259
1 A0252U 26181G   26249.61508519  .00128622  00000-0  85088-3 0  9998
2 A0252  97.2849 292.5103 0001412  77.9981 282.1443 15.75173797  5721
Epoch: 2026-09-06T14:45Z
TLE epoch observation values (Epoch: 2026-09-06T14:45:43.360Z)
Latitude
0.00004°
Longitude
85.37196°
Altitude
347.105 km
Speed
7.701 km/s
True Right ascension
19h 30m 02s
True Declination
0° 00' 00"
Sunlit
Object was in full shadow at epoch
Visualization orbit readout
Latitude
Unknown
Longitude
Unknown
Altitude
Unknown
Speed
Unknown
Apparent Right ascension
Unknown
Apparent Declination
Unknown
Sunlit
N/A
Visualization observer readout
Local Sidereal Time
12:15:44
Azimuth
Unknown
Elevation
Unknown
Doppler factor
Unknown
Orbital elements
Apogee altitude
341.973 km
Perigee altitude
340.075 km
Semi-major axis
6,719.161 km
Eccentricity
0.00014
Inclination
97.2849°
RAAN
292.5103°
Arg. of periapsis
77.9981°
True anomaly
282.12848°
Mean anomaly
282.1443°
Eccentric anomaly
282.13639°
Mean motion
3.94067 °/min
Orbital period
91.35 mins
BSTAR
0.00085088
Loading maneuver chart data...
Computing Atmospheric mass density...
Loading historical data...
Loading historical data...
Loading historical data...
Loading historical data...
Loading historical data...
Loading historical data...
Loading historical data...

Documentation

Showing up to 5 results
|